Location: Nebula Knoll Observatory
(43.6666°N, 71.0000°W)
Time: 04:18:37
(UTC-05:00)

Daily predictions for brighter satellites

Satellite Brightness Start Highest point End
(mag) Time Altitude Azimuth Time Altitude Azimuth Time Altitude Azimuth
Cosmos 1697 Rocket 4.2 03:01:19 32° ENE 03:01:19 32° ENE 03:04:44 10° NE
SJ 16-02 4.2 03:02:14 14° E 03:02:14 14° E 03:03:58 10° ENE
CZ-3 R/B 4.2 03:05:09 45° SSW 03:08:27 48° S 03:18:46 10° ESE
COSMOS 2455 4.0 03:24:32 22° N 03:27:59 40° NE 03:33:36 10° ESE
ADEOS II 3.8 03:27:52 10° N 03:29:58 25° N 03:29:58 25° N
Cosmos 2263 Rocket 4.4 03:39:46 10° N 03:44:12 23° NE 03:48:35 10° E
Cosmos 1934 Rocket 4.4 03:43:58 19° SSE 03:48:37 61° E 03:54:53 10° NNE
Meteor 2-10 Rocket 3.8 03:49:01 63° ENE 03:49:01 63° ENE 03:53:35 10° NNE
Cosmos 2360 4.5 03:54:31 53° SSE 03:55:42 66° ESE 04:01:22 10° NNE
Cosmos 2278 4.5 03:59:32 39° NNW 03:59:32 39° NNW 04:03:39 10° NNE
Okean O Rocket 1.9 03:56:50 10° NNE 04:01:01 65° E 04:01:01 65° E
Cosmos 2123 Rocket 4.1 03:56:45 10° N 04:02:59 73° E 04:09:15 10° SSE
Cosmos 2322 Rocket 4.1 04:00:05 10° SSE 04:04:46 27° ESE 04:09:28 10° NE
Cosmos 158 Rocket 4.1 04:08:59 58° S 04:08:59 58° S 04:13:11 10° SSE
Cosmos 1980 Rocket 2.1 04:12:53 57° SSW 04:14:06 85° WNW 04:19:48 10° NNE
Cosmos 2227 4.3 04:09:04 10° NNW 04:14:44 75° ENE 04:20:20 10° SSE
Cosmos 1821 Rocket 3.9 04:13:54 54° SW 04:15:03 64° W 04:21:17 10° N
Cosmos 405 4.2 04:13:44 10° N 04:17:10 42° ENE 04:20:35 10° SSE
ATLAS 5 CENTAUR R/B 2.7 04:18:04 26° S 04:20:12 44° ESE 04:24:52 10° NE
PAYLOAD B 4.1 04:15:41 10° NNE 04:21:13 83° WNW 04:24:12 28° SSW
MOS 1-B 4.4 04:16:34 10° N 04:22:08 51° WNW 04:22:30 50° W
Cosmos 1535 Rocket 4.4 04:25:30 35° SW 04:27:57 60° W 04:34:01 10° N
Cosmos 1048 Rocket 3.8 04:25:05 10° NNW 04:30:15 77° WSW 04:35:21 10° SSE
Meteor 2-17 Rocket 4.4 04:27:44 10° S 04:33:48 90° E 04:39:57 10° N
Cosmos 372 Rocket 3.8 04:32:36 37° SW 04:34:39 75° WNW 04:39:48 10° NNE
IDEFIX/ARIANE 42P 3.5 04:31:33 10° NNE 04:36:38 49° E 04:41:39 10° S
SJ 16-02 1.4 04:39:17 51° W 04:39:34 52° WNW 04:43:54 10° N
BREEZE-M DEB (TANK) 2.7 04:39:13 43° NNW 04:40:04 59° NNE 04:47:09 10° ESE
Cosmos 1733 Rocket 3.2 04:37:05 10° N 04:41:28 74° E 04:45:52 10° SSE
Cosmos 1441 Rocket 3.6 04:38:39 10° S 04:42:37 67° E 04:46:35 10° NNE
Cosmos 1697 Rocket 3.4 04:43:04 31° WNW 04:43:33 32° NW 04:48:32 10° N
USA 215 4.3 04:40:27 10° S 04:44:59 23° SW 04:44:59 23° SW
Cosmos 1862 Rocket 3.9 04:41:41 10° S 04:45:59 66° E 04:50:22 10° NNE
Cosmos 1125 Rocket 3.5 04:46:13 28° SW 04:48:47 58° WNW 04:53:57 10° NNE
Meteor 1-31 Rocket 3.1 04:47:44 10° N 04:51:24 42° WNW 04:51:26 42° WNW
SL-16 R/B 2.5 04:45:57 10° SSW 04:51:33 67° ESE 04:57:12 10° NNE
Cosmos 1933 3.5 04:52:46 36° WSW 04:53:51 46° WNW 04:57:47 10° N
COSMO-SKYMED 1 2.6 04:51:45 10° SSE 04:56:05 84° ENE 05:00:27 10° NNW
OPS 8737 4.5 04:56:55 23° SSW 04:59:08 84° ESE 05:02:31 10° NE
Cosmos 1605 Rocket 4.0 04:54:46 10° SSW 05:00:45 56° WNW 05:06:45 10° N
CZ-2C R/B 3.2 04:56:22 10° NNE 05:01:26 58° E 05:06:32 10° S
Okean-O 3.0 04:57:03 10° NNE 05:01:29 65° ESE 05:05:52 10° S
Cosmos 1782 4.1 05:00:48 10° SSE 05:04:37 43° E 05:08:28 10° NNE
Aureole 3 2.6 05:03:05 10° N 05:06:04 82° E 05:09:13 10° S
Cosmos 2100 Rocket 4.3 05:01:55 10° S 05:08:00 72° E 05:14:08 10° NNE
CZ-2C R/B 3.9 05:06:39 10° S 05:11:10 50° W 05:15:39 10° NNW
Meteor 1-26 Rocket 4.2 05:07:37 10° SSW 05:13:30 71° WNW 05:19:19 10° N
COSMOS 2455 3.3 05:08:21 10° NW 05:13:53 39° WSW 05:19:23 10° S
CZ-4B R/B 3.8 05:11:00 10° N 05:15:54 35° WNW 05:20:52 10° SW
Geosat 4.5 05:11:06 10° SE 05:16:02 63° ENE 05:21:02 10° NNW
Cosmos 1606 2.9 05:14:09 10° S 05:17:56 73° E 05:21:44 10° NNE
Feng Yun 1-1 Rocket 4.2 05:14:21 10° NNE 05:19:56 79° WNW 05:25:39 10° SSW
Cosmos 494 Rocket 3.9 05:17:31 10° NNW 05:22:38 70° WSW 05:27:41 10° S
Cosmos 1633 2.4 05:19:49 10° NNW 05:23:28 72° W 05:27:06 10° S
Cosmos 1437 Rocket 3.1 05:20:57 10° N 05:25:01 71° E 05:28:59 10° SSE
Meteor 1-20 Rocket 4.2 05:21:15 10° NNW 05:27:05 75° W 05:32:48 10° S
Cosmos 2263 Rocket 2.2 05:22:59 10° NNW 05:28:36 65° WSW 05:34:13 10° S
Cosmos 1459 Rocket 4.0 05:23:30 10° S 05:29:46 85° W 05:36:10 10° N
Cosmos 2173 Rocket 3.9 05:27:06 10° S 05:33:17 81° W 05:39:27 10° N
Cosmos 2016 Rocket 4.3 05:28:00 10° S 05:34:17 75° E 05:40:40 10° N
Cosmos 1782 Rocket 3.9 05:32:10 10° N 05:36:30 69° E 05:40:49 10° SSE
Okean O Rocket 3.4 05:34:46 10° NNW 05:37:06 14° WNW 05:38:29 12° W
Cosmos 405 Rocket 3.8 05:35:52 10° SW 05:39:11 25° WNW 05:42:27 10° NNW
Meteor 1-10 Rocket 4.5 05:34:25 10° S 05:39:57 74° E 05:45:30 10° NNE
Cosmos 1802 Rocket 4.0 05:34:49 10° S 05:41:13 83° W 05:47:34 10° N
Cosmos 2061 Rocket 4.0 05:35:45 10° S 05:41:56 81° W 05:48:11 10° N
Radarsat Rocket 4.0 05:37:05 10° NNE 05:42:53 68° WNW 05:49:02 10° SSW
Cosmos 2084 4.3 05:39:39 10° NNW 05:43:18 42° NE 05:46:58 10° ESE
Cosmos 1484 Rocket 3.5 05:40:00 10° NNE 05:43:59 62° E 05:47:57 10° S
SKYMED 2 4.4 05:40:27 10° SSW 05:44:15 29° W 05:48:04 10° NW
PAYLOAD A 4.4 05:43:55 10° N 05:48:20 37° WNW 05:52:51 10° SW
Cosmos 2322 Rocket 2.5 05:43:04 10° SW 05:48:31 47° WNW 05:54:02 10° NNE
Meteor 2-6 Rocket 4.2 05:45:22 10° S 05:50:52 88° E 05:56:18 10° N
Iridium 2 3.7 05:47:16 10° S 05:51:06 89° W 05:54:58 10° N
Cosmos 1844 Rocket 3.9 05:46:19 10° NNW 05:51:45 46° ENE 05:57:09 10° SE
Sich 1 Rocket 3.6 05:49:12 10° NNW 05:53:32 58° W 05:57:50 10° S
ISS -1.3 05:51:44 10° S 05:54:23 23° SE 05:57:02 10° E
Cosmos 2360 Rocket 2.3 05:50:18 10° SSW 05:55:58 90° SE 06:01:41 10° NNE
Cosmos 1818 4.5 05:52:50 10° NNW 05:58:10 51° NE 06:03:29 10° SE
Cosmos 1980 Rocket 3.8 05:55:30 10° W 05:58:59 16° NW 06:02:29 10° N
